Location: Akhali Gavazi
(42.2911°N, 44.4422°E)
Time: 14:09:00
(UTC+00:00)

Daily predictions for brighter satellites

Satellite Brightness Start Highest point End
(mag) Time Altitude Azimuth Time Altitude Azimuth Time Altitude Azimuth
BREEZE-M DEB (TANK) 4.1 16:54:46 10° W 16:57:39 51° N 17:05:26 10° ENE
Resurs 01 Rocket 2.4 16:55:11 10° SE 16:59:11 36° ENE 17:03:13 10° N
Cosmos 1515 Rocket 4.3 16:57:56 10° SSE 17:01:49 33° E 17:05:46 10° NNE
Landsat 7 3.9 16:57:39 10° SSE 17:02:18 62° ENE 17:06:58 10° N
Cosmos 1980 Rocket 2.9 16:59:02 10° SSE 17:03:55 31° ESE 17:08:51 10° NE
ATLAS 2AS CENTAUR R/B 3.6 16:57:59 10° S 17:04:40 32° ESE 17:11:15 10° NE
NOSS 3-4 (A) 3.4 17:03:36 10° SW 17:09:16 87° NW 17:15:23 10° NE
NOSS 3-4 (C) 3.4 17:03:38 10° SW 17:09:20 88° NW 17:15:27 10° NE
Okean-O 3.8 17:06:48 10° S 17:11:00 42° W 17:15:13 10° NNW
PSLV R/B 4.0 17:07:27 10° NNE 17:11:27 58° E 17:15:25 10° S
IGS 5A 3.7 17:07:57 10° S 17:12:05 74° WSW 17:16:15 10° NNW
BREEZE-M DEB (TANK) 4.2 17:06:57 10° SW 17:12:05 80° SE 17:27:47 10° ENE
Cosmos 2369 4.0 17:07:51 10° S 17:13:09 44° ESE 17:18:28 10° NE
ARGOS Delta rocket 4.3 17:13:28 10° NNE 17:18:53 56° E 17:24:09 10° S
MOS 1 4.3 17:15:47 10° SSE 17:21:23 73° ENE 17:27:03 10° N
Cosmos 1697 Rocket 2.7 17:16:57 10° SSW 17:22:37 90° ESE 17:28:19 10° NNE
Cosmos 1486 Rocket 4.0 17:17:32 10° SSW 17:22:50 78° ESE 17:28:07 10° NNE
Cosmos 2360 4.3 17:22:11 10° SSW 17:27:51 88° WNW 17:33:34 10° NNE
Cosmos 1536 2.8 17:27:03 10° N 17:31:04 66° E 17:34:48 12° SSE
ATLAS 3B R/B 4.4 17:25:18 10° NNW 17:31:12 25° NNE 17:37:16 10° E
ISS -1.6 17:29:11 10° NW 17:31:52 22° NNE 17:34:33 10° ENE
Okean 1 4.3 17:29:07 13° SE 17:31:57 28° E 17:35:25 10° NNE
BREEZE-M DEB (TANK) 3.7 17:31:16 10° NW 17:33:02 19° N 17:35:07 10° ENE
Cosmos 2297 Rocket 3.1 17:28:06 10° NW 17:33:28 46° WSW 17:38:49 10° S
H-2A R/B 2.5 17:29:38 10° N 17:33:41 60° WNW 17:37:43 10° SSW
MetOp-B 4.4 17:29:52 12° SE 17:34:39 54° ENE 17:39:52 10° N
RESURS DK-1 3.2 17:31:17 10° SSE 17:34:49 29° ESE 17:38:23 10° NE
EXPRESS MD2 3.7 17:28:54 10° WNW 17:35:15 72° NNE 17:37:56 16° ESE
Cosmos 1072 Rocket 4.4 17:31:37 10° S 17:37:41 77° E 17:43:48 10° N
SL-4 R/B 2.2 17:33:27 10° WNW 17:38:03 81° SW 17:41:15 18° SE
Timation 2 Rocket 4.4 17:35:17 10° NNW 17:41:47 58° ENE 17:47:08 16° SE
SL-16 R/B 3.5 17:49:55 17° SE 17:51:41 20° E 17:55:42 10° NE
Cosmos 1503 Rocket 4.0 17:46:50 10° SSW 17:52:05 83° ESE 17:57:26 10° NNE
SL-12 R/B (Aux Motor) 3.3 17:52:18 10° SW 17:54:48 54° SSE 17:55:07 46° ESE
ERS-1 Rocket 3.9 17:52:34 18° ESE 17:55:34 34° ENE 18:00:06 10° N
Cosmos 1184 Rocket 3.1 17:55:01 10° SSW 17:57:59 57° WNW 18:00:58 10° N
Cosmos 1975 4.2 17:57:23 10° NNE 18:00:47 25° ENE 18:02:11 21° ESE
Meteor 1-27 Rocket 4.4 17:58:06 10° SSW 18:03:46 60° WNW 18:09:35 10° N
SPOT 1/Viking Rocket 3.9 17:59:02 12° S 18:03:48 63° WSW 18:08:56 10° NNW
Cosmos 1933 Rocket 3.8 18:00:57 10° NNW 18:05:24 71° W 18:08:51 16° S
Cosmos 2034 Rocket 4.0 17:59:51 10° S 18:06:08 82° E 18:12:30 10° N
Cosmos 389 Rocket 3.1 18:03:04 10° NNW 18:06:30 51° W 18:08:54 18° SSW
Helios 1A Rocket 3.0 18:06:45 27° SE 18:08:41 57° ENE 18:12:38 10° N
CZ-2C R/B 4.3 18:04:36 10° NNE 18:09:08 40° E 18:11:18 26° SSE
Cosmos 2292 Rocket 3.7 18:09:04 10° NNE 18:11:42 28° ENE 18:11:56 28° E
Cosmos 2278 3.6 18:06:13 10° SSW 18:11:49 70° ESE 18:17:29 10° NNE
NOSS 2-1 (C) 3.8 18:12:34 28° E 18:12:34 28° E 18:14:48 10° NE
Cosmos 2219 4.4 18:07:20 10° NW 18:12:27 37° WSW 18:17:17 11° S
CZ-4B R/B 3.8 18:10:40 10° NNW 18:13:14 22° WNW 18:15:45 10° WSW
SJ 16-02 1.3 18:11:58 10° SSW 18:16:20 84° WNW 18:20:43 10° NNE
Cosmos 2360 Rocket 3.9 18:17:18 14° E 18:17:18 14° E 18:20:01 10° ENE
Cosmos 2082 3.9 18:13:56 10° NNW 18:19:31 64° WSW 18:23:06 22° S
NOSS 2-1 (D) 3.3 18:22:47 39° E 18:22:47 39° E 18:25:23 10° NE
Cosmos 2263 Rocket 2.2 18:17:21 10° NNW 18:22:56 69° ENE 18:25:47 29° SE
Ariane Rocket 4.0 18:19:53 13° SSW 18:24:11 42° W 18:29:00 10° NNW
Cosmos 2344 3.9 18:19:53 10° SW 18:27:22 65° NW 18:34:59 10° NNE
USA 215 4.2 18:24:01 10° ENE 18:29:08 24° ESE 18:29:08 24° ESE
SPOT 5 3.0 18:27:18 29° SSE 18:30:07 82° ENE 18:35:18 10° N
ASTRO F (AKARI) 4.3 18:31:17 54° E 18:31:31 56° ENE 18:34:36 10° N
Terra 2.0 18:30:11 33° SE 18:32:05 57° ENE 18:36:46 10° N
OAO 3 Rocket 4.4 18:28:15 10° WSW 18:32:18 26° SSW 18:32:44 25° S
Resurs 01 Rocket 3.7 18:32:24 10° SW 18:35:46 21° W 18:39:09 10° NW
Cosmos 2195 Rocket 4.5 18:29:26 10° N 18:35:50 81° E 18:39:22 28° SSE
Cosmos 2227 Rocket 4.3 18:36:19 10° NW 18:40:14 19° W 18:44:07 10° SW
Cosmos 1346 Rocket 2.9 18:39:36 48° SE 18:40:21 58° E 18:44:19 10° NNE
Cosmos 1441 Rocket 4.4 18:41:10 27° E 18:41:10 27° E 18:43:54 10° NNE
Cosmos 1428 Rocket 4.5 18:37:19 10° N 18:43:40 86° E 18:47:00 30° S
Cosmos 921 Rocket 4.4 18:42:31 10° NW 18:46:36 34° W 18:48:50 21° SSW
Cosmos 1980 Rocket 3.6 18:42:32 10° SW 18:47:46 39° WNW 18:53:04 10° N
Geosat FO 4.5 18:47:39 60° SSW 18:48:02 68° WSW 18:51:23 10° NNW
SL-24 R/B - RUBIN 2 3.7 18:48:13 10° NNW 18:52:36 67° NE 18:53:49 46° ESE
Cosmos 2228 Rocket 4.1 18:51:35 17° SW 18:54:46 46° WNW 18:59:10 10° N
Iridium 2 4.4 18:51:41 10° NNE 18:55:04 37° ENE 18:55:04 37° ENE
ATLAS 2AS CENTAUR R/B 3.4 18:47:32 10° SW 18:55:16 63° NW 19:02:48 10° NNE
Cosmos 2322 Rocket 2.4 18:54:33 40° SSE 18:55:57 49° ESE 19:01:21 10° NE
Spot 2 Rocket 4.0 18:55:31 29° SSW 18:57:49 53° W 19:02:45 10° NNW
Cosmos 2333 Rocket 3.8 19:01:21 18° E 19:01:21 18° E 19:04:33 10° ENE
Cosmos 1378 4.1 19:00:07 29° SW 19:01:26 42° WNW 19:04:56 10° N
Meteor 2-4 Rocket 3.9 18:58:20 25° SSW 19:01:53 74° WNW 19:07:34 10° N
Cosmos 1844 Rocket 3.9 18:57:29 10° N 19:02:27 32° NE 19:04:39 24° E
Okean 1-7 4.4 19:03:49 25° E 19:03:49 25° E 19:07:04 10° NNE
Cosmos 1092 Rocket 4.3 18:58:10 10° NNW 19:04:15 62° W 19:07:25 29° SSW
ISS -3.4 19:05:39 10° NW 19:08:33 63° NW 19:08:33 63° NW
Cosmos 1634 Rocket 4.2 19:05:21 24° SSW 19:09:12 69° W 19:15:23 10° N
Cosmos 2142 Rocket 4.5 19:11:09 37° S 19:13:56 85° E 19:20:23 10° N
SL-4 R/B 4.4 19:14:41 10° W 19:16:42 14° WSW 19:16:42 14° WSW
ARIANE 5 R/B 2.9 19:16:07 49° SSW 19:17:01 60° WSW 19:21:29 10° NNW
Cosmos 1805 3.6 19:14:32 10° N 19:18:07 51° ENE 19:18:07 51° ENE
Meteor 2-15 Rocket 4.3 19:16:03 39° S 19:18:30 90° W 19:24:37 10° N
Cosmos 1707 Rocket 4.4 19:17:07 30° SW 19:18:50 46° WNW 19:23:06 10° N
Cosmos 2219 Rocket 3.7 19:21:25 20° E 19:21:25 20° E 19:24:38 10° NE
NOSS 2-1 (E) 4.0 19:21:03 37° W 19:21:39 41° NW 19:24:43 10° NNE
Cosmos 44 Rocket 3.3 19:17:38 10° NW 19:22:15 57° WSW 19:22:46 54° SSW
ATLAS 3B R/B 2.9 19:15:33 10° NW 19:23:00 84° NE 19:26:10 39° SE
ATLAS CENTAUR R/B 3.5 19:19:55 10° NNW 19:23:53 24° NE 19:25:51 19° ENE
Cosmos 2227 4.5 19:18:46 10° NNW 19:24:26 59° WSW 19:26:02 43° SSW
Cosmos 1733 3.4 19:28:22 10° N 19:31:41 66° NNE 19:31:41 66° NNE
Cosmos 1655 Rocket 4.2 19:26:36 10° N 19:32:44 56° E 19:34:17 44° SE
Cosmos 1766 4.2 19:29:35 10° N 19:32:50 38° ENE 19:32:50 38° ENE
Cosmos 1703 Rocket 4.0 19:34:00 49° ENE 19:34:00 49° ENE 19:37:59 10° NNE
ERS-1 Rocket 4.4 19:32:33 23° SW 19:34:22 28° W 19:38:42 10° NW
SL-16 R/B 2.7 19:31:42 22° SW 19:35:16 59° WNW 19:40:54 10° NNE
Cosmos 2237 4.2 19:34:31 41° SSW 19:36:35 84° WNW 19:42:21 10° NNE
CZ-4C R/B 4.3 19:30:39 10° NNW 19:36:52 31° NE 19:44:00 10° E
Gblst 52 Del rocket 4.3 19:30:38 10° SW 19:37:24 89° NW 19:43:19 10° ENE
Meteor 2-10 3.8 19:40:58 10° N 19:46:14 83° E 19:46:48 70° SSE
Meteor 1-4 Rocket 3.5 19:42:57 10° NNW 19:45:36 45° NW 19:45:36 45° NW
Geosat 4.0 19:48:25 62° SSW 19:48:56 66° WSW 19:53:57 10° NNW
Cosmos 1733 Rocket 4.3 19:46:04 10° NNW 19:50:03 32° W 19:50:39 31° WSW
Cosmos 1782 Rocket 4.2 19:46:36 10° N 19:50:31 44° ENE 19:50:31 44° ENE
COSMOS 2428 3.9 19:53:57 26° E 19:53:57 26° E 19:58:01 10° NE
Meteor 1-15 Rocket 4.2 19:48:52 10° N 19:54:32 72° E 19:55:26 60° SE
ERS-2 4.1 19:56:25 10° NNE 19:58:05 22° NE 19:58:05 22° NE
Cosmos 2360 Rocket 2.2 19:59:00 53° SW 20:00:22 79° WNW 20:06:03 10° NNE
Cosmos 923 Rocket 3.9 19:56:01 10° NNW 20:01:22 73° WSW 20:01:50 68° SSW
Cosmos 1908 Rocket 3.7 19:57:25 10° NNW 20:01:28 68° WNW 20:01:28 68° WNW
Cosmos 1937 Rocket 3.3 20:02:32 77° SSE 20:02:52 83° ESE 20:08:10 10° NNE
Cosmos 2266 Rocket 3.9 19:59:16 10° N 20:05:30 81° W 20:06:45 59° S
Cosmos 2333 4.0 20:05:14 67° SE 20:05:33 69° ESE 20:11:10 10° NNE
Cosmos 2263 Rocket 4.1 20:02:50 10° WNW 20:06:11 16° W 20:07:29 15° WSW
Cosmos 2242 Rocket 3.6 20:06:29 79° NNE 20:06:29 79° NNE 20:10:48 10° N
ALOS 2 3.2 20:07:13 47° ENE 20:07:13 47° ENE 20:11:16 10° N
Cosmos 1470 4.0 20:05:43 10° N 20:08:30 34° NE 20:08:30 34° NE
Terra 4.0 20:09:04 14° WSW 20:10:12 15° W 20:12:59 10° NW
Cosmos 1867 4.4 20:12:29 37° E 20:12:29 37° E 20:16:39 10° NE
Cosmos 1726 3.1 20:08:14 10° NNW 20:10:52 44° NNW 20:10:52 44° NNW
USA 215 3.2 20:06:07 10° NE 20:12:42 90° N 20:16:25 29° SW
ADEOS Rocket 3.3 20:18:35 42° ESE 20:19:44 48° ENE 20:25:26 10° N
Cosmos 2112 Rocket 3.9 20:16:37 10° NNW 20:21:57 75° WSW 20:22:07 74° SW
Cosmos 2278 Rocket 4.2 20:17:41 10° N 20:21:59 21° NE 20:25:14 14° E
Cosmos 1680 Rocket 3.6 20:17:46 10° NNW 20:23:00 62° WSW 20:23:07 62° WSW
Cosmos 1626 4.3 20:28:53 19° NE 20:28:53 19° NE 20:30:26 10° NE
Cosmos 1842 4.1 20:28:37 47° NNW 20:28:37 47° NNW 20:31:35 10° N
Meteor 1-22 Rocket 4.2 20:21:46 10° N 20:27:45 88° W 20:28:37 68° S
Spot 4 4.0 20:28:07 64° W 20:28:07 64° W 20:32:44 10° NNW
Cosmos 1818 3.4 20:25:56 10° NW 20:31:25 80° WSW 20:31:31 79° SW
Iridium 4 Rocket 4.0 20:29:23 10° NNW 20:33:49 44° W 20:33:58 44° W
Sich 1 Rocket 4.2 20:35:15 10° N 20:39:04 50° NE 20:39:04 50° NE
Cosmos 1674 4.3 20:41:26 29° NE 20:41:26 29° NE 20:43:38 10° NNE
Cosmos 2322 Rocket 4.0 20:36:17 13° WSW 20:40:15 26° NW 20:44:56 10° N
Cosmos 2322 3.6 20:43:35 73° SW 20:44:10 86° WNW 20:49:57 10° NNE
Cosmos 2333 Rocket 2.4 20:43:20 52° WSW 20:44:26 63° WNW 20:50:04 10° NNE
Cosmos 1844 Rocket 3.4 20:41:14 10° NW 20:46:18 39° WSW 20:46:18 39° WSW
USA 267 3.6 20:42:28 22° ESE 20:46:47 62° NE 20:53:14 10° NW
Cosmos 1758 4.3 20:44:24 10° N 20:47:24 43° NNE 20:47:24 43° NNE
SL-08 ROCKET BODY 4.1 20:44:31 10° N 20:50:26 86° W 20:51:01 73° S
Cosmos 1461 3.5 20:54:10 10° NNW 20:57:40 55° N 20:57:40 55° N
ASTEX 1 3.6 20:54:22 10° NNE 20:59:03 62° E 20:59:03 62° E
Cosmos 1553 Rocket 3.8 20:58:59 67° SSE 20:59:46 77° E 21:05:58 10° N
Cosmos 1244 Rocket 4.4 20:56:17 10° N 21:02:37 82° W 21:03:32 66° SSW
ATLAS CENTAUR R/B 2.5 20:58:18 10° NW 21:01:51 42° WNW 21:01:51 42° WNW
Cosmos 2219 Rocket 2.5 21:03:06 49° WSW 21:04:06 57° WNW 21:09:38 10° NNE
Nadezhda 2 Rocket 4.3 20:59:12 10° N 21:05:21 75° W 21:06:07 66° SSW
Cosmos 1674 Rocket 4.1 21:08:59 52° NE 21:08:59 52° NE 21:12:31 10° NNE
Cosmos 2150 Rocket 4.3 21:11:38 52° E 21:11:38 52° E 21:16:24 10° NNE
ATLAS 3B R/B 4.3 21:07:37 10° WNW 21:12:59 22° WSW 21:13:24 22° WSW
Cosmos 2221 Rocket 3.9 21:13:39 64° NNW 21:13:39 64° NNW 21:17:28 10° N
Meteor 1-16 Rocket 4.5 21:08:36 10° N 21:14:30 63° ENE 21:15:29 55° ESE
Cosmos 494 Rocket 4.0 21:11:26 10° NNW 21:16:33 67° ENE 21:16:51 66° E
Cosmos 1048 Rocket 3.9 21:11:33 10° NNW 21:16:44 74° ENE 21:16:55 73° E
CZ-2D R/B 4.3 21:14:43 10° ENE 21:17:05 13° E 21:18:15 12° ESE
NOSS 3-1 (A) 4.1 21:09:36 10° NW 21:17:14 82° NE 21:21:35 34° SE
NOSS 0 Rocket 3.9 21:17:04 63° SSE 21:17:44 68° ESE 21:23:56 10° NNE
Cosmos 1125 Rocket 3.4 21:23:02 71° ESE 21:23:02 71° ESE 21:28:10 10° NNE
Cosmos 1378 Rocket 3.8 21:23:48 67° NNE 21:23:48 67° NNE 21:27:40 10° N
NOSS 3-1 (C) 4.2 21:16:56 10° NW 21:24:32 62° WSW 21:26:41 49° S
Cosmos 1707 4.5 21:25:34 26° NW 21:25:34 26° NW 21:28:11 10° NNW
CZ-4C R/B 3.0 21:18:41 10° NW 21:26:10 81° WSW 21:29:11 45° SSE
USA 308 3.9 21:29:18 41° ENE 21:29:18 41° ENE 21:32:05 10° NE
ERS-2 4.5 21:30:28 10° NNW 21:32:29 16° WNW 21:32:29 16° WNW
Cosmos 2237 Rocket 2.2 21:33:08 64° SE 21:33:31 65° ESE 21:39:10 10° NNE
Cosmos 1300 4.0 21:31:19 10° N 21:34:16 35° NE 21:34:16 35° NE
COSMOS 2428 3.4 21:35:55 38° W 21:37:18 45° WNW 21:42:46 10° NNE
Cosmos 1745 Rocket 3.8 21:33:04 10° N 21:39:19 85° W 21:40:22 64° S
Meteor 2-12 Rocket 4.5 21:33:23 10° N 21:39:27 70° E 21:40:49 53° SE
SL-14 R/B 4.0 21:42:36 51° NNE 21:42:36 51° NNE 21:45:34 10° N
Cosmos 1975 Rocket 4.2 21:42:24 33° E 21:42:24 33° E 21:46:25 10° NNE
Resurs 1-4 Rocket 3.6 21:39:35 10° NE 21:43:46 23° E 21:44:51 22° ESE
PSLV R/B 4.4 21:41:49 10° N 21:45:55 42° WNW 21:45:55 42° WNW
Cosmos 1025 Rocket 4.4 21:46:23 29° E 21:46:27 29° E 21:50:09 10° NNE
USA 305 3.3 21:51:03 57° NNW 21:51:03 57° NNW 21:54:55 10° NE
Cosmos 332 Rocket 3.9 21:51:00 60° E 21:51:00 60° E 21:55:39 10° NNE
Cosmos 1943 Rocket 3.9 21:46:10 10° N 21:51:05 29° NE 21:55:58 10° ESE
Okean 2 Rocket 4.4 21:47:23 10° NNW 21:50:44 31° WNW 21:50:44 31° WNW
Cosmos 405 Rocket 4.0 21:53:19 33° NW 21:53:19 33° NW 21:55:58 10° N
Cosmos 2298 Rocket 4.2 21:54:04 57° W 21:54:40 61° WNW 21:59:55 10° NNE
ADEOS II 4.2 21:54:32 10° NE 21:57:47 16° E 21:59:49 13° ESE
Cosmos 1437 Rocket 4.0 21:55:53 10° NNW 21:58:15 34° NW 21:58:15 34° NW
EO 1 Delta rocket 4.0 21:55:38 10° NNE 22:00:22 74° E 22:00:57 65° SSE
Cosmos 883 Rocket 4.4 21:59:27 57° SSW 22:00:52 85° W 22:07:14 10° N
Lacrosse 5 rocket 3.1 22:03:36 21° E 22:03:36 21° E 22:05:33 10° ENE
Thor Agena Rocket 3.7 21:57:07 10° NNE 22:02:24 65° ESE 22:03:08 58° SE
Cosmos 1626 4.3 22:03:15 19° NW 22:03:15 19° NW 22:05:13 10° NNW
GP-B 3.1 22:00:11 10° N 22:04:38 75° E 22:04:38 75° E
ATLAS 5 CENTAUR R/B 2.5 21:55:45 10° NW 22:05:20 62° WSW 22:05:22 62° WSW
ADEOS Rocket 4.2 22:05:31 23° W 22:05:38 23° W 22:10:12 10° NW
Cosmos 2278 Rocket 2.1 22:00:56 10° NNW 22:06:34 65° WSW 22:07:02 62° SW
Cosmos 839 Rocket 4.2 22:01:13 10° NW 22:07:43 80° WSW 22:10:59 37° SSE
Cosmos 1953 3.4 22:06:21 10° NNW 22:09:10 35° NW 22:09:10 35° NW
SL-16 R/B 3.4 22:15:43 17° SE 22:20:18 46° ENE 22:26:13 10° N
SL-16 R/B 2.6 22:20:27 44° SSE 22:21:41 53° ESE 22:27:12 10° NNE
USA 32 4.2 22:21:56 52° WSW 22:22:35 55° W 22:27:45 10° N
Cosmos 1980 4.3 22:24:18 37° W 22:25:51 46° WNW 22:31:18 10° NNE
Okean 1 Rocket 4.3 22:23:55 10° NNW 22:27:12 29° WNW 22:27:12 29° WNW
Lacrosse 5 1.7 22:27:49 66° SSW 22:28:29 79° SE 22:33:36 10° NE
Cosmos 371 Rocket 4.5 22:28:14 29° W 22:29:09 31° WNW 22:33:29 10° N
USA 267 3.6 22:29:44 41° SW 22:29:57 41° SW 22:36:05 10° WNW
USA 306 4.3 22:31:30 25° WNW 22:33:00 33° NNW 22:36:49 10° NE
Cosmos 1709 Rocket 4.2 22:27:39 10° NNW 22:33:34 52° W 22:34:54 44° SW
Meteor 2-10 Rocket 3.7 22:29:15 10° NNW 22:34:47 60° W 22:35:45 52° SW
Cosmos 2315 Rocket 4.3 22:33:42 42° SW 22:35:31 55° WNW 22:41:48 10° N
USA 307 4.2 22:35:30 27° WNW 22:36:58 35° NNW 22:40:50 10° NE
Cosmos 1269 Rocket 4.0 22:32:35 10° NNW 22:37:54 83° ENE 22:39:53 40° SSE
USA 229 DEB 4.3 22:34:22 10° NW 22:41:22 44° WSW 22:43:19 37° SSW
USA 229 4.3 22:34:27 10° NW 22:41:28 44° WSW 22:43:27 37° SSW
Cosmos 2184 Rocket 4.2 22:35:47 10° N 22:42:01 66° E 22:45:38 26° SSE
Cosmos 2084 Rocket 3.6 22:43:12 51° WNW 22:43:21 51° NW 22:47:05 10° NNE
COSMOS 2455 3.4 22:42:28 35° SSE 22:44:34 49° ESE 22:50:20 10° NE
Meteor 1-24 Rocket 3.6 22:43:16 48° SSW 22:44:55 86° W 22:50:25 10° N
AQUA 4.4 22:41:03 10° NNE 22:45:42 51° E 22:47:12 37° SSE
MOZ.5/SAFIR/RUBIN 5/SL-8 4.4 22:56:16 38° WSW 22:56:26 38° W 23:00:52 10° NNW
CZ-2D R/B 2.1 22:52:23 10° NNE 22:57:46 79° WNW 22:59:34 43° SSW
Cosmos 1455 2.1 22:54:50 10° N 22:58:33 75° E 22:59:05 61° SE
Cosmos 1455 Rocket 3.9 23:01:11 10° NNW 23:05:13 34° W 23:05:22 34° W
SME Rocket 3.7 23:05:13 37° W 23:05:17 37° W 23:09:42 10° NNW
Cosmos 1271 Rocket 3.5 23:02:17 10° N 23:06:00 47° ENE 23:07:58 24° SE
Meteor 2-5 Rocket 4.2 23:07:46 34° WSW 23:09:44 46° WNW 23:15:12 10° N
Cosmos 292 Rocket 3.9 23:08:29 38° S 23:10:14 69° ESE 23:15:01 10° NNE
CRYOSAT 2 4.3 23:09:02 33° S 23:11:13 88° E 23:16:08 10° N
Cosmos 1536 Rocket 3.5 23:10:57 43° S 23:12:20 88° ESE 23:16:46 10° N
CZ-4C R/B 4.4 23:08:58 10° WNW 23:14:09 19° WSW 23:14:17 19° WSW
Nadezhda 1 Rocket 4.0 23:10:37 28° S 23:14:14 84° E 23:20:33 10° N
Cosmos 1943 4.2 23:12:32 19° SSE 23:15:58 38° ESE 23:21:11 10° NE
Cosmos 2237 Rocket 4.0 23:14:56 14° W 23:18:04 21° NW 23:22:23 10° N
SAR-Lupe-2 3.6 23:19:46 10° N 23:23:19 61° WNW 23:23:59 49° WSW
Resurs 1-4 Rocket 2.6 23:18:46 10° N 23:23:45 45° WNW 23:25:56 29° WSW
Cosmos 1025 Rocket 4.4 23:23:16 22° W 23:24:00 24° WNW 23:27:30 10° NNW
YAOGAN 11 4.3 23:32:10 33° SSW 23:33:49 51° W 23:38:13 10° NNW
Cosmos 1943 Rocket 2.5 23:29:37 10° NW 23:34:59 44° WSW 23:37:57 24° SSW
Helios 1B rocket 4.2 23:32:51 10° NE 23:36:20 27° E 23:39:47 10° SSE
Cosmos 1606 Rocket 4.3 23:32:49 10° N 23:37:09 52° E 23:41:24 10° SSE
IDEFIX/ARIANE 42P 2.6 23:31:55 10° N 23:37:12 78° WNW 23:40:17 26° SSW
ADEOS II 2.2 23:32:41 10° N 23:37:53 63° WNW 23:40:44 27° SW
UNK 4.1 23:37:16 31° SW 23:38:54 43° W 23:43:18 10° NNW
Cosmos 2297 3.9 23:34:51 10° NNW 23:40:26 53° WSW 23:44:54 16° S
Lacrosse 5 rocket 2.3 23:39:06 22° W 23:41:04 38° NW 23:44:54 10° NE
Cosmos 614 Rocket 4.0 23:36:33 10° NNW 23:41:41 60° WSW 23:45:49 16° S
GPS 2-04 Rocket1 4.3 23:42:57 16° SSE 23:42:57 16° SSE 23:44:49 10° ESE
Cosmos 2341 Rocket 4.3 23:39:57 10° N 23:46:21 71° E 23:52:42 10° SSE
Cosmos 2154 Rocket 4.2 23:42:16 10° NNW 23:48:25 54° W 23:52:57 18° SSW
COSMOS 2441 4.4 23:44:32 10° NNE 23:49:26 85° ESE 23:52:54 19° SSW
IRS-1D 3.6 23:44:36 10° NNE 23:49:58 83° ESE 23:54:00 18° S
Helios 1A 3.1 23:48:44 24° SSW 23:51:03 52° W 23:55:13 10° NNW
Cosmos 1703 3.6 23:49:26 29° SW 23:51:05 50° W 23:54:55 10° N
Cosmos 2251 Rocket 3.4 23:46:48 10° NNW 23:52:05 82° WSW 23:57:22 10° SSE
MOS 1 Rocket 3.9 23:53:59 25° SW 23:55:24 31° W 23:59:14 10° NNW
